Hourly Weather Kozlyakovka

Today, 23 October, Friday

Time Temperature Precipitation Wind Pressure Humidity
00:00 +1°C° 0 mm 3 mps 735 mmHg 76%
01:00 +1°C° 0.4 mm 3 mps 735 mmHg 82%
02:00 0°C° 0.4 mm 4 mps 735 mmHg 88%
03:00 +1°C° 0 mm 4 mps 735 mmHg 93%
04:00 +1°C° 0.2 mm 4 mps 734 mmHg 93%
05:00 +1°C° 0.2 mm 4 mps 733 mmHg 93%
06:00 +1°C° 0.2 mm 5 mps 732 mmHg 93%
07:00 +1°C° 0.6 mm 5 mps 732 mmHg 92%
08:00 +2°C° 0.6 mm 5 mps 731 mmHg 92%
09:00 +2°C° 0 mm 5 mps 731 mmHg 96%
10:00 +2°C° 1.6 mm 5 mps 730 mmHg 96%
11:00 +4°C° 1.6 mm 4 mps 730 mmHg 96%
12:00 +5°C° 1.6 mm 4 mps 729 mmHg 96%
13:00 +5°C° 0.3 mm 4 mps 729 mmHg 96%
14:00 +6°C° 0.3 mm 4 mps 729 mmHg 95%
15:00 +7°C° 0.3 mm 4 mps 729 mmHg 95%
16:00 +7°C° 0 mm 4 mps 729 mmHg 95%
17:00 +8°C° 0 mm 4 mps 729 mmHg 94%
18:00 +8°C° 0 mm 4 mps 729 mmHg 94%
19:00 +8°C° 0 mm 4 mps 729 mmHg 94%
20:00 +8°C° 0 mm 4 mps 730 mmHg 94%
21:00 +8°C° 0 mm 4 mps 730 mmHg 93%
22:00 +7°C° 0 mm 4 mps 729 mmHg 94%
23:00 +7°C° 0 mm 4 mps 729 mmHg 94%

Tomorrow, 24 October, Saturday

Time Temperature Precipitation Wind Pressure Humidity
00:00 +7°C° 0 mm 5 mps 729 mmHg 94%
01:00 +8°C° 0.1 mm 5 mps 728 mmHg 93%
02:00 +8°C° 0.1 mm 5 mps 728 mmHg 93%
03:00 +9°C° 0.1 mm 5 mps 728 mmHg 93%
04:00 +9°C° 0.1 mm 5 mps 728 mmHg 92%
05:00 +9°C° 0.1 mm 5 mps 727 mmHg 91%
06:00 +9°C° 0.1 mm 5 mps 727 mmHg 90%
07:00 +9°C° 0 mm 5 mps 727 mmHg 88%
08:00 +9°C° 0 mm 5 mps 728 mmHg 87%
09:00 +9°C° 0 mm 5 mps 728 mmHg 86%
10:00 +9°C° 0 mm 5 mps 728 mmHg 83%
11:00 +10°C° 0 mm 5 mps 728 mmHg 81%
12:00 +10°C° 0 mm 5 mps 728 mmHg 79%
13:00 +10°C° 0 mm 4 mps 729 mmHg 78%
14:00 +10°C° 0 mm 4 mps 729 mmHg 76%
15:00 +10°C° 0 mm 4 mps 729 mmHg 75%
16:00 +10°C° 0 mm 4 mps 729 mmHg 77%
17:00 +9°C° 0 mm 3 mps 730 mmHg 79%
18:00 +9°C° 0 mm 3 mps 730 mmHg 81%
19:00 +9°C° 0 mm 2 mps 730 mmHg 81%
20:00 +9°C° 0 mm 2 mps 731 mmHg 81%
21:00 +9°C° 0 mm 1 mps 731 mmHg 81%
22:00 +9°C° 0 mm 1 mps 731 mmHg 84%
23:00 +9°C° 0 mm 1 mps 731 mmHg 86%

Day after tomorrow, 25 October, Sunday

Time Temperature Precipitation Wind Pressure Humidity
00:00 +8°C° 0 mm 1 mps 731 mmHg 88%
01:00 +8°C° 0 mm 1 mps 731 mmHg 89%
02:00 +8°C° 0 mm 1 mps 731 mmHg 90%
03:00 +8°C° 0 mm 1 mps 730 mmHg 91%
04:00 +8°C° 0 mm 1 mps 730 mmHg 91%
05:00 +8°C° 0 mm 1 mps 730 mmHg 92%
06:00 +7°C° 0 mm 1 mps 730 mmHg 92%
07:00 +8°C° 0.5 mm 1 mps 729 mmHg 93%
08:00 +8°C° 0.5 mm 1 mps 729 mmHg 94%
09:00 +7°C° 0.5 mm 2 mps 729 mmHg 95%
10:00 +8°C° 1.1 mm 1 mps 728 mmHg 95%
11:00 +8°C° 1.1 mm 1 mps 728 mmHg 96%
12:00 +8°C° 1.1 mm 1 mps 728 mmHg 97%
13:00 +9°C° 1 mm 1 mps 728 mmHg 96%
14:00 +8°C° 1 mm 2 mps 728 mmHg 96%
15:00 +8°C° 1 mm 2 mps 728 mmHg 96%
16:00 +8°C° 0.1 mm 3 mps 728 mmHg 93%
17:00 +6°C° 0.1 mm 4 mps 728 mmHg 91%
18:00 +6°C° 0.1 mm 5 mps 729 mmHg 88%
19:00 +5°C° 0 mm 5 mps 729 mmHg 88%
20:00 +5°C° 0 mm 5 mps 730 mmHg 89%
21:00 +4°C° 0 mm 4 mps 731 mmHg 90%
22:00 +4°C° 0 mm 4 mps 731 mmHg 91%
23:00 +3°C° 0 mm 4 mps 732 mmHg 92%

, 26 October, Monday

Time Temperature Precipitation Wind Pressure Humidity
00:00 +3°C° 0 mm 4 mps 732 mmHg 93%
01:00 +3°C° 0 mm 4 mps 733 mmHg 92%
02:00 +3°C° 0 mm 4 mps 733 mmHg 90%
03:00 +3°C° 0 mm 4 mps 734 mmHg 89%
04:00 +3°C° 0 mm 4 mps 734 mmHg 88%
05:00 +1°C° 0 mm 4 mps 734 mmHg 87%
06:00 +1°C° 0 mm 4 mps 735 mmHg 86%
07:00 +1°C° 0 mm 4 mps 735 mmHg 82%
08:00 +1°C° 0 mm 5 mps 735 mmHg 78%
09:00 +2°C° 0 mm 5 mps 736 mmHg 75%
10:00 +2°C° 0 mm 5 mps 736 mmHg 70%
11:00 +3°C° 0 mm 6 mps 736 mmHg 65%
12:00 +4°C° 0 mm 6 mps 737 mmHg 60%
13:00 +5°C° 0 mm 5 mps 737 mmHg 60%
14:00 +3°C° 0 mm 5 mps 737 mmHg 61%
15:00 +3°C° 0 mm 5 mps 738 mmHg 61%
16:00 +3°C° 0 mm 4 mps 738 mmHg 68%
17:00 +2°C° 0 mm 3 mps 739 mmHg 74%
18:00 +1°C° 0 mm 3 mps 739 mmHg 80%
19:00 +1°C° 0 mm 2 mps 740 mmHg 82%
20:00 -1°C° 0 mm 2 mps 740 mmHg 85%
21:00 -1°C° 0 mm 2 mps 741 mmHg 87%
22:00 -2°C° 0 mm 2 mps 741 mmHg 88%
23:00 -2°C° 0 mm 2 mps 741 mmHg 90%

26 October, Monday

Time Temperature Precipitation Wind Pressure Humidity
00:00 +3°C° 0 mm 4 mps 732 mmHg 93%
01:00 +3°C° 0 mm 4 mps 733 mmHg 92%
02:00 +3°C° 0 mm 4 mps 733 mmHg 90%
03:00 +3°C° 0 mm 4 mps 734 mmHg 89%
04:00 +3°C° 0 mm 4 mps 734 mmHg 88%
05:00 +1°C° 0 mm 4 mps 734 mmHg 87%
06:00 +1°C° 0 mm 4 mps 735 mmHg 86%
07:00 +1°C° 0 mm 4 mps 735 mmHg 82%
08:00 +1°C° 0 mm 5 mps 735 mmHg 78%
09:00 +2°C° 0 mm 5 mps 736 mmHg 75%
10:00 +2°C° 0 mm 5 mps 736 mmHg 70%
11:00 +3°C° 0 mm 6 mps 736 mmHg 65%
12:00 +4°C° 0 mm 6 mps 737 mmHg 60%
13:00 +5°C° 0 mm 5 mps 737 mmHg 60%
14:00 +3°C° 0 mm 5 mps 737 mmHg 61%
15:00 +3°C° 0 mm 5 mps 738 mmHg 61%
16:00 +3°C° 0 mm 4 mps 738 mmHg 68%
17:00 +2°C° 0 mm 3 mps 739 mmHg 74%
18:00 +1°C° 0 mm 3 mps 739 mmHg 80%
19:00 +1°C° 0 mm 2 mps 740 mmHg 82%
20:00 -1°C° 0 mm 2 mps 740 mmHg 85%
21:00 -1°C° 0 mm 2 mps 741 mmHg 87%
22:00 -2°C° 0 mm 2 mps 741 mmHg 88%
23:00 -2°C° 0 mm 2 mps 741 mmHg 90%

27 October, Tuesday

Time Temperature Precipitation Wind Pressure Humidity
00:00 -3°C° 0 mm 2 mps 742 mmHg 91%
01:00 -1°C° 0 mm 1 mps 742 mmHg 90%
02:00 -1°C° 0 mm 1 mps 742 mmHg 88%
03:00 -1°C° 0 mm 1 mps 742 mmHg 87%
04:00 -1°C° 0 mm 1 mps 743 mmHg 86%
05:00 -1°C° 0 mm 1 mps 743 mmHg 86%
06:00 -1°C° 0 mm 1 mps 743 mmHg 85%
07:00 0°C° 0 mm 1 mps 744 mmHg 79%
08:00 0°C° 0 mm 1 mps 744 mmHg 73%
09:00 +1°C° 0 mm 1 mps 744 mmHg 66%
10:00 +3°C° 0 mm 1 mps 745 mmHg 59%
11:00 +4°C° 0 mm 1 mps 745 mmHg 51%
12:00 +5°C° 0 mm 1 mps 745 mmHg 43%
13:00 +5°C° 0 mm 1 mps 745 mmHg 45%
14:00 +5°C° 0 mm 1 mps 745 mmHg 46%
15:00 +5°C° 0 mm 1 mps 745 mmHg 47%
16:00 +3°C° 0 mm 0 mps 745 mmHg 52%
17:00 +1°C° 0 mm 0 mps 745 mmHg 56%
18:00 0°C° 0 mm 0 mps 745 mmHg 60%
19:00 0°C° 0 mm 0 mps 745 mmHg 61%
20:00 +1°C° 0 mm 1 mps 745 mmHg 61%
21:00 0°C° 0 mm 1 mps 746 mmHg 61%
22:00 0°C° 0 mm 1 mps 746 mmHg 62%
23:00 0°C° 0 mm 1 mps 746 mmHg 62%

28 October, Wednesday

Time Temperature Precipitation Wind Pressure Humidity
00:00 0°C° 0 mm 1 mps 746 mmHg 63%
01:00 0°C° 0 mm 1 mps 746 mmHg 63%
02:00 0°C° 0 mm 1 mps 746 mmHg 63%
03:00 0°C° 0 mm 1 mps 746 mmHg 64%
04:00 0°C° 0 mm 1 mps 746 mmHg 65%
05:00 0°C° 0 mm 1 mps 746 mmHg 66%
06:00 0°C° 0 mm 1 mps 746 mmHg 67%
07:00 +1°C° 0 mm 1 mps 746 mmHg 63%
08:00 +2°C° 0 mm 1 mps 746 mmHg 60%
09:00 +2°C° 0 mm 1 mps 747 mmHg 56%
10:00 +3°C° 0 mm 2 mps 747 mmHg 52%
11:00 +4°C° 0 mm 2 mps 747 mmHg 49%
12:00 +5°C° 0 mm 2 mps 747 mmHg 45%
13:00 +5°C° 0 mm 2 mps 746 mmHg 47%
14:00 +5°C° 0 mm 2 mps 746 mmHg 50%
15:00 +5°C° 0 mm 2 mps 746 mmHg 53%
16:00 +3°C° 0 mm 2 mps 746 mmHg 58%
17:00 +2°C° 0 mm 2 mps 746 mmHg 64%
18:00 -1°C° 0 mm 2 mps 746 mmHg 69%
19:00 -1°C° 0 mm 2 mps 746 mmHg 71%
20:00 -1°C° 0 mm 2 mps 746 mmHg 72%
21:00 -1°C° 0 mm 2 mps 746 mmHg 74%
22:00 -1°C° 0 mm 2 mps 746 mmHg 74%
23:00 -2°C° 0 mm 2 mps 746 mmHg 75%
Show more